| time (UTC) | temp C | wind direction | speed KPH | gust KPH | rain 1hr cm | rain 24hr cm | rain mn cm | humidity % | barometer mb |
| 20260505153059 | 23 | 225 | 8.0 | 19.3 | 0.00 | 0.00 | 0.00 | 51 | 1012.4 |
| 20260505152550 | 23 | 242 | 3.2 | 19.3 | 0.00 | 0.00 | 0.00 | 52 | 1012.4 |
| 20260505152048 | 23 | 277 | 8.0 | 19.3 | 0.00 | 0.00 | 0.00 | 50 | 1012.4 |
| 20260505151554 | 23 | 259 | 9.7 | 19.3 | 0.00 | 0.00 | 0.00 | 52 | 1012.5 |
| 20260505151048 | 23 | 223 | 6.4 | 16.1 | 0.00 | 0.00 | 0.00 | 52 | 1012.4 |
| 20260505150547 | 23 | 263 | 6.4 | 14.5 | 0.00 | 0.00 | 0.00 | 53 | 1012.6 |
| 20260505140547 | 21 | 238 | 4.8 | 11.3 | 0.00 | 0.00 | 0.00 | 56 | 1012.8 |
| 20260505124553 | 17 | 250 | 1.6 | 16.1 | 0.00 | 0.00 | 0.00 | 67 | 1013.3 |
| 20260505124047 | 17 | 223 | 3.2 | 16.1 | 0.00 | 0.00 | 0.00 | 68 | 1013.2 |
| 20260505123546 | 16 | 211 | 3.2 | 12.9 | 0.00 | 0.00 | 0.00 | 68 | 1013.2 |
| 20260505123109 | 16 | 273 | 3.2 | 9.7 | 0.00 | 0.00 | 0.00 | 69 | 1013.3 |
| 20260505122546 | 16 | 0 | 3.2 | 9.7 | 0.00 | 0.00 | 0.00 | 70 | 1013.1 |
| 20260505122047 | 16 | 234 | 1.6 | 9.7 | 0.00 | 0.00 | 0.00 | 70 | 1013.2 |
| 20260505121552 | 16 | 162 | 1.6 | 4.8 | 0.00 | 0.00 | 0.00 | 72 | 1013.1 |
| 20260505121047 | 16 | 69 | 0.0 | 4.8 | 0.00 | 0.00 | 0.00 | 74 | 1013.1 |
| 20260505120547 | 15 | 119 | 0.0 | 4.8 | 0.00 | 0.00 | 0.00 | 73 | 1013.2 |
| 20260505120058 | 15 | 116 | 0.0 | 4.8 | 0.00 | 0.00 | 0.00 | 74 | 1013.0 |
| 20260505115545 | 15 | 0 | 1.6 | 9.7 | 0.00 | 0.00 | 0.00 | 74 | 1012.8 |
| 20260505115045 | 15 | 191 | 3.2 | 9.7 | 0.00 | 0.00 | 0.00 | 73 | 1012.8 |
| 20260505114611 | 15 | 291 | 1.6 | 4.8 | 0.00 | 0.00 | 0.00 | 75 | 1012.7 |
| 20260505114047 | 14 | 283 | 0.0 | 8.0 | 0.00 | 0.00 | 0.00 | 76 | 1012.7 |
| 20260505113548 | 14 | 0 | 1.6 | 8.0 | 0.00 | 0.00 | 0.00 | 78 | 1012.8 |
| 20260505113053 | 13 | 146 | 1.6 | 6.4 | 0.00 | 0.00 | 0.00 | 78 | 1012.7 |
| 20260505112545 | 13 | 0 | 0.0 | 6.4 | 0.00 | 0.00 | 0.00 | 80 | 1012.7 |
| 20260505112048 | 13 | 0 | 1.6 | 6.4 | 0.00 | 0.00 | 0.00 | 80 | 1012.9 |
| 20260505111604 | 13 | 150 | 0.0 | 6.4 | 0.00 | 0.00 | 0.00 | 81 | 1012.7 |
| 20260505111049 | 13 | 225 | 1.6 | 6.4 | 0.00 | 0.00 | 0.00 | 80 | 1012.7 |
| 20260505110547 | 13 | 0 | 1.6 | 3.2 | 0.00 | 0.00 | 0.00 | 79 | 1012.7 |
| 20260505102045 | 13 | 219 | 1.6 | 9.7 | 0.00 | 0.00 | 0.00 | 76 | 1012.0 |
| 20260505101549 | 13 | 107 | 1.6 | 9.7 | 0.00 | 0.00 | 0.00 | 75 | 1011.9 |
| 20260505101045 | 14 | 112 | 1.6 | 4.8 | 0.00 | 0.00 | 0.00 | 74 | 1011.9 |
| 20260505100545 | 14 | 194 | 0.0 | 6.4 | 0.00 | 0.00 | 0.00 | 74 | 1011.9 |
| 20260505100052 | 14 | 205 | 0.0 | 9.7 | 0.00 | 0.00 | 0.00 | 73 | 1012.0 |
| 20260505095547 | 14 | 0 | 1.6 | 9.7 | 0.00 | 0.00 | 0.00 | 73 | 1011.9 |
| 20260505095045 | 15 | 164 | 1.6 | 12.9 | 0.00 | 0.00 | 0.00 | 72 | 1011.8 |
| 20260505094553 | 15 | 202 | 3.2 | 12.9 | 0.00 | 0.00 | 0.00 | 72 | 1011.6 |
| 20260505094045 | 15 | 204 | 1.6 | 8.0 | 0.00 | 0.00 | 0.00 | 72 | 1011.7 |
| 20260505093546 | 15 | 205 | 3.2 | 8.0 | 0.00 | 0.00 | 0.00 | 72 | 1011.8 |
| 20260505093100 | 15 | 196 | 3.2 | 11.3 | 0.00 | 0.00 | 0.00 | 71 | 1011.7 |
| 20260505092547 | 15 | 197 | 3.2 | 11.3 | 0.00 | 0.00 | 0.00 | 71 | 1011.7 |
| 20260505092049 | 15 | 198 | 4.8 | 11.3 | 0.00 | 0.00 | 0.00 | 71 | 1011.7 |
| 20260505091556 | 15 | 198 | 6.4 | 12.9 | 0.00 | 0.00 | 0.00 | 71 | 1011.6 |
| 20260505091050 | 15 | 207 | 6.4 | 12.9 | 0.00 | 0.00 | 0.00 | 71 | 1011.7 |
| 20260505090547 | 15 | 190 | 6.4 | 12.9 | 0.00 | 0.00 | 0.00 | 71 | 1011.7 |
| 20260505090058 | 15 | 166 | 6.4 | 12.9 | 0.00 | 0.00 | 0.00 | 71 | 1011.6 |
| 20260505085548 | 15 | 196 | 6.4 | 12.9 | 0.00 | 0.00 | 0.00 | 71 | 1011.7 |
| 20260505085048 | 15 | 202 | 6.4 | 12.9 | 0.00 | 0.00 | 0.00 | 71 | 1011.8 |
| 20260505084552 | 15 | 192 | 6.4 | 12.9 | 0.00 | 0.00 | 0.00 | 70 | 1011.6 |
| 20260505084048 | 15 | 204 | 6.4 | 12.9 | 0.00 | 0.00 | 0.00 | 70 | 1011.6 |
| 20260505083547 | 15 | 200 | 6.4 | 12.9 | 0.00 | 0.00 | 0.00 | 70 | 1011.6 |
| 20260505083102 | 15 | 180 | 6.4 | 12.9 | 0.00 | 0.00 | 0.00 | 70 | 1011.5 |
| 20260505082549 | 15 | 190 | 6.4 | 9.7 | 0.00 | 0.00 | 0.00 | 70 | 1011.6 |
| 20260505082048 | 15 | 192 | 4.8 | 9.7 | 0.00 | 0.00 | 0.00 | 69 | 1011.6 |
| 20260505081556 | 15 | 193 | 4.8 | 9.7 | 0.00 | 0.00 | 0.00 | 70 | 1011.6 |
| 20260505081048 | 15 | 186 | 6.4 | 9.7 | 0.00 | 0.00 | 0.00 | 70 | 1011.7 |
| 20260505080547 | 15 | 196 | 4.8 | 9.7 | 0.00 | 0.00 | 0.00 | 70 | 1011.8 |
| 20260505075548 | 15 | 190 | 4.8 | 9.7 | 0.00 | 0.00 | 0.00 | 71 | 1011.7 |
| 20260505075048 | 15 | 187 | 4.8 | 8.0 | 0.00 | 0.00 | 0.00 | 71 | 1011.6 |
| 20260505074558 | 15 | 186 | 3.2 | 8.0 | 0.00 | 0.00 | 0.00 | 71 | 1011.6 |
| 20260505074048 | 15 | 185 | 3.2 | 6.4 | 0.00 | 0.00 | 0.00 | 71 | 1011.7 |
| 20260505073548 | 15 | 186 | 3.2 | 6.4 | 0.00 | 0.00 | 0.00 | 70 | 1011.6 |
| 20260505073056 | 15 | 182 | 4.8 | 8.0 | 0.00 | 0.00 | 0.00 | 70 | 1011.6 |
| 20260505072548 | 15 | 183 | 3.2 | 8.0 | 0.00 | 0.00 | 0.00 | 70 | 1011.6 |
| 20260505072048 | 15 | 176 | 4.8 | 8.0 | 0.00 | 0.00 | 0.00 | 69 | 1011.8 |
| 20260505071557 | 15 | 191 | 3.2 | 8.0 | 0.00 | 0.00 | 0.00 | 69 | 1011.6 |
| 20260505071049 | 15 | 190 | 3.2 | 11.3 | 0.00 | 0.00 | 0.00 | 69 | 1011.6 |
| 20260505070548 | 15 | 190 | 3.2 | 11.3 | 0.00 | 0.00 | 0.00 | 68 | 1011.6 |
| 20260505070058 | 15 | 198 | 3.2 | 11.3 | 0.00 | 0.00 | 0.00 | 68 | 1011.7 |
| 20260505065546 | 16 | 192 | 4.8 | 11.3 | 0.00 | 0.00 | 0.00 | 68 | 1011.7 |
| 20260505065045 | 16 | 192 | 3.2 | 11.3 | 0.00 | 0.00 | 0.00 | 68 | 1011.7 |
| 20260505064601 | 16 | 153 | 3.2 | 9.7 | 0.00 | 0.00 | 0.00 | 68 | 1011.7 |
| 20260505064045 | 16 | 191 | 3.2 | 9.7 | 0.00 | 0.00 | 0.00 | 68 | 1011.7 |
| 20260505063545 | 16 | 192 | 4.8 | 9.7 | 0.00 | 0.00 | 0.00 | 68 | 1011.7 |
| 20260505063055 | 16 | 193 | 4.8 | 9.7 | 0.00 | 0.00 | 0.00 | 67 | 1011.7 |
| 20260505062545 | 16 | 196 | 4.8 | 9.7 | 0.00 | 0.00 | 0.00 | 67 | 1011.8 |
| 20260505062045 | 16 | 195 | 4.8 | 9.7 | 0.00 | 0.00 | 0.00 | 67 | 1011.7 |
| 20260505061604 | 16 | 194 | 4.8 | 11.3 | 0.00 | 0.00 | 0.00 | 67 | 1011.7 |
| 20260505061045 | 16 | 207 | 6.4 | 11.3 | 0.00 | 0.00 | 0.00 | 67 | 1011.7 |
| 20260505060545 | 16 | 188 | 4.8 | 11.3 | 0.00 | 0.00 | 0.00 | 66 | 1011.6 |
| 20260505060058 | 16 | 192 | 4.8 | 12.9 | 0.00 | 0.00 | 0.00 | 66 | 1011.7 |
| 20260505055545 | 16 | 187 | 6.4 | 12.9 | 0.00 | 0.00 | 0.00 | 66 | 1011.8 |
| 20260505055047 | 16 | 194 | 6.4 | 12.9 | 0.00 | 0.00 | 0.00 | 66 | 1011.8 |
| 20260505054601 | 16 | 200 | 6.4 | 11.3 | 0.00 | 0.00 | 0.00 | 66 | 1011.7 |
| 20260505054045 | 15 | 197 | 6.4 | 12.9 | 0.00 | 0.00 | 0.00 | 66 | 1011.7 |
| 20260505053545 | 15 | 189 | 6.4 | 12.9 | 0.00 | 0.00 | 0.00 | 66 | 1011.7 |
| 20260505053108 | 16 | 190 | 6.4 | 12.9 | 0.00 | 0.00 | 0.00 | 65 | 1011.6 |
| 20260505052545 | 16 | 195 | 4.8 | 11.3 | 0.00 | 0.00 | 0.00 | 65 | 1011.7 |
| 20260505052045 | 16 | 202 | 6.4 | 9.7 | 0.00 | 0.00 | 0.00 | 64 | 1011.6 |
| 20260505051549 | 16 | 195 | 6.4 | 12.9 | 0.00 | 0.00 | 0.00 | 64 | 1011.7 |
| 20260505051045 | 16 | 202 | 6.4 | 12.9 | 0.00 | 0.00 | 0.00 | 63 | 1011.7 |
| 20260505050544 | 16 | 191 | 6.4 | 12.9 | 0.00 | 0.00 | 0.00 | 63 | 1011.7 |
| 20260505041610 | 16 | 191 | 4.8 | 9.7 | 0.00 | 0.00 | 0.00 | 61 | 1011.8 |
| 20260505041045 | 16 | 190 | 4.8 | 11.3 | 0.00 | 0.00 | 0.00 | 60 | 1011.7 |
| 20260505040546 | 16 | 190 | 4.8 | 11.3 | 0.00 | 0.00 | 0.00 | 60 | 1011.7 |
| 20260505040057 | 16 | 197 | 4.8 | 11.3 | 0.00 | 0.00 | 0.00 | 60 | 1011.6 |
| 20260505035550 | 16 | 195 | 4.8 | 11.3 | 0.00 | 0.00 | 0.00 | 59 | 1011.6 |
| 20260505035054 | 16 | 181 | 4.8 | 11.3 | 0.00 | 0.00 | 0.00 | 59 | 1011.6 |
| 20260505034555 | 16 | 197 | 4.8 | 11.3 | 0.00 | 0.00 | 0.00 | 59 | 1011.5 |
| 20260505034052 | 16 | 187 | 3.2 | 8.0 | 0.00 | 0.00 | 0.00 | 59 | 1011.5 |
| 20260505033547 | 16 | 196 | 3.2 | 8.0 | 0.00 | 0.00 | 0.00 | 58 | 1011.4 |
| 20260505033049 | 16 | 190 | 3.2 | 9.7 | 0.00 | 0.00 | 0.00 | 58 | 1011.3 |
| 20260505032550 | 16 | 190 | 4.8 | 9.7 | 0.00 | 0.00 | 0.00 | 58 | 1011.5 |
| 20260505032046 | 16 | 190 | 3.2 | 8.0 | 0.00 | 0.00 | 0.00 | 58 | 1011.5 |
| 20260505031600 | 16 | 196 | 4.8 | 8.0 | 0.00 | 0.00 | 0.00 | 57 | 1011.5 |
| 20260505031054 | 16 | 197 | 4.8 | 9.7 | 0.00 | 0.00 | 0.00 | 57 | 1011.6 |
| 20260505030548 | 16 | 191 | 3.2 | 9.7 | 0.00 | 0.00 | 0.00 | 57 | 1011.6 |
| 20260505030054 | 16 | 186 | 4.8 | 9.7 | 0.00 | 0.00 | 0.00 | 57 | 1011.7 |
| 20260505025547 | 16 | 192 | 3.2 | 8.0 | 0.00 | 0.00 | 0.00 | 57 | 1011.7 |
| 20260505025051 | 16 | 192 | 3.2 | 6.4 | 0.00 | 0.00 | 0.00 | 57 | 1011.7 |
| 20260505024555 | 16 | 192 | 3.2 | 8.0 | 0.00 | 0.00 | 0.00 | 57 | 1011.7 |
| 20260505024048 | 16 | 192 | 3.2 | 8.0 | 0.00 | 0.00 | 0.00 | 57 | 1011.7 |
| 20260505023550 | 16 | 191 | 4.8 | 8.0 | 0.00 | 0.00 | 0.00 | 57 | 1011.6 |
| 20260505023055 | 16 | 191 | 3.2 | 8.0 | 0.00 | 0.00 | 0.00 | 57 | 1011.7 |
| 20260505022548 | 16 | 191 | 3.2 | 8.0 | 0.00 | 0.00 | 0.00 | 57 | 1011.7 |
| 20260505022049 | 16 | 191 | 3.2 | 6.4 | 0.00 | 0.00 | 0.00 | 56 | 1011.6 |
| 20260505021555 | 16 | 191 | 3.2 | 6.4 | 0.00 | 0.00 | 0.00 | 56 | 1011.8 |
| 20260505021046 | 17 | 191 | 4.8 | 6.4 | 0.00 | 0.00 | 0.00 | 56 | 1011.9 |
| 20260505020617 | 17 | 190 | 3.2 | 6.4 | 0.00 | 0.00 | 0.00 | 56 | 1011.9 |
| 20260505020055 | 17 | 190 | 3.2 | 6.4 | 0.00 | 0.00 | 0.00 | 55 | 1012.0 |
| 20260505015550 | 17 | 190 | 3.2 | 6.4 | 0.00 | 0.00 | 0.00 | 55 | 1012.1 |
| 20260505015048 | 17 | 190 | 1.6 | 6.4 | 0.00 | 0.00 | 0.00 | 55 | 1012.0 |
| 20260505014553 | 17 | 190 | 3.2 | 6.4 | 0.00 | 0.00 | 0.00 | 54 | 1012.0 |
| 20260505014048 | 17 | 190 | 1.6 | 6.4 | 0.00 | 0.00 | 0.00 | 54 | 1011.9 |
| 20260505013548 | 17 | 188 | 1.6 | 6.4 | 0.00 | 0.00 | 0.00 | 53 | 1011.9 |
| 20260505013100 | 17 | 188 | 3.2 | 6.4 | 0.00 | 0.00 | 0.00 | 53 | 1011.8 |
| 20260505012547 | 17 | 213 | 1.6 | 6.4 | 0.00 | 0.00 | 0.00 | 53 | 1011.8 |
| 20260505012048 | 17 | 213 | 1.6 | 6.4 | 0.00 | 0.00 | 0.00 | 53 | 1011.6 |
| 20260505011551 | 17 | 213 | 1.6 | 4.8 | 0.00 | 0.00 | 0.00 | 53 | 1011.7 |
| 20260505011050 | 17 | 0 | 3.2 | 4.8 | 0.00 | 0.00 | 0.00 | 53 | 1011.6 |
| 20260505010547 | 17 | 243 | 1.6 | 4.8 | 0.00 | 0.00 | 0.00 | 53 | 1011.5 |
| 20260505010054 | 17 | 246 | 1.6 | 4.8 | 0.00 | 0.00 | 0.00 | 53 | 1011.5 |
| 20260505005548 | 17 | 239 | 1.6 | 4.8 | 0.00 | 0.00 | 0.00 | 53 | 1011.5 |
| 20260505005048 | 17 | 240 | 1.6 | 6.4 | 0.00 | 0.00 | 0.00 | 52 | 1011.5 |
| 20260505004552 | 17 | 240 | 1.6 | 6.4 | 0.00 | 0.00 | 0.00 | 53 | 1011.5 |
| 20260505004047 | 17 | 218 | 1.6 | 4.8 | 0.00 | 0.00 | 0.00 | 53 | 1011.5 |
| 20260505003546 | 17 | 218 | 1.6 | 4.8 | 0.00 | 0.00 | 0.00 | 53 | 1011.5 |
| 20260505003055 | 17 | 214 | 1.6 | 4.8 | 0.00 | 0.00 | 0.00 | 53 | 1011.3 |
| 20260505002550 | 17 | 0 | 0.0 | 3.2 | 0.00 | 0.00 | 0.00 | 53 | 1011.3 |
| 20260505002049 | 17 | 263 | 0.0 | 3.2 | 0.00 | 0.00 | 0.00 | 53 | 1011.4 |
| 20260505001554 | 17 | 263 | 0.0 | 4.8 | 0.00 | 0.00 | 0.00 | 52 | 1011.2 |
| 20260505001048 | 17 | 0 | 1.6 | 4.8 | 0.00 | 0.00 | 0.00 | 52 | 1011.2 |
| 20260505000547 | 18 | 263 | 1.6 | 4.8 | 0.00 | 0.00 | 0.00 | 51 | 1011.2 |
| 20260504235547 | 18 | 251 | 1.6 | 6.4 | 0.00 | 0.00 | 0.00 | 51 | 1011.2 |
| 20260504235048 | 18 | 259 | 1.6 | 6.4 | 0.00 | 0.00 | 0.00 | 50 | 1011.1 |
| 20260504234557 | 18 | 197 | 3.2 | 6.4 | 0.00 | 0.00 | 0.00 | 49 | 1011.1 |
| 20260504234047 | 18 | 197 | 3.2 | 6.4 | 0.00 | 0.00 | 0.00 | 49 | 1011.1 |
| 20260504233547 | 18 | 195 | 3.2 | 6.4 | 0.00 | 0.00 | 0.00 | 49 | 1011.1 |
| 20260504233054 | 18 | 196 | 1.6 | 9.7 | 0.00 | 0.00 | 0.00 | 50 | 1011.0 |
| 20260504232548 | 19 | 226 | 1.6 | 9.7 | 0.00 | 0.00 | 0.00 | 49 | 1011.0 |
| 20260504232047 | 19 | 211 | 1.6 | 8.0 | 0.00 | 0.00 | 0.00 | 49 | 1011.1 |
| 20260504231602 | 19 | 196 | 1.6 | 8.0 | 0.00 | 0.00 | 0.00 | 48 | 1011.1 |
| 20260504231047 | 19 | 196 | 3.2 | 8.0 | 0.00 | 0.00 | 0.00 | 47 | 1011.1 |
| 20260504230547 | 20 | 183 | 1.6 | 8.0 | 0.00 | 0.00 | 0.00 | 47 | 1011.1 |
| 20260504230150 | 20 | 243 | 1.6 | 6.4 | 0.00 | 0.00 | 0.00 | 47 | 1011.1 |
| 20260504230057 | 20 | 243 | 1.6 | 6.4 | 0.00 | 0.00 | 0.00 | 47 | 1011.1 |
| 20260504225548 | 20 | 244 | 3.2 | 4.8 | 0.00 | 0.00 | 0.00 | 46 | 1011.0 |
| 20260504225047 | 20 | 222 | 1.6 | 8.0 | 0.00 | 0.00 | 0.00 | 47 | 1011.0 |
| 20260504224555 | 20 | 214 | 1.6 | 11.3 | 0.00 | 0.00 | 0.00 | 46 | 1011.1 |
| 20260504224048 | 20 | 215 | 1.6 | 11.3 | 0.00 | 0.00 | 0.00 | 46 | 1011.1 |
| 20260504223548 | 20 | 193 | 3.2 | 11.3 | 0.00 | 0.00 | 0.00 | 45 | 1011.1 |
| 20260504223053 | 20 | 200 | 3.2 | 11.3 | 0.00 | 0.00 | 0.00 | 45 | 1011.1 |
| 20260504222548 | 20 | 195 | 3.2 | 11.3 | 0.00 | 0.00 | 0.00 | 45 | 1011.1 |
| 20260504222047 | 20 | 190 | 3.2 | 17.7 | 0.00 | 0.00 | 0.00 | 44 | 1011.1 |
| 20260504221558 | 20 | 248 | 6.4 | 17.7 | 0.00 | 0.00 | 0.00 | 45 | 1011.1 |
| 20260504221047 | 20 | 192 | 4.8 | 11.3 | 0.00 | 0.00 | 0.00 | 44 | 1011.2 |
| 20260504220548 | 20 | 163 | 3.2 | 11.3 | 0.00 | 0.00 | 0.00 | 44 | 1011.2 |
| 20260504220056 | 20 | 203 | 3.2 | 11.3 | 0.00 | 0.00 | 0.00 | 44 | 1011.3 |
| 20260504215548 | 20 | 229 | 1.6 | 12.9 | 0.00 | 0.00 | 0.00 | 44 | 1011.2 |
| 20260504215046 | 20 | 190 | 3.2 | 12.9 | 0.00 | 0.00 | 0.00 | 45 | 1011.3 |
| 20260504214554 | 20 | 256 | 6.4 | 12.9 | 0.00 | 0.00 | 0.00 | 45 | 1011.2 |
| 20260504214048 | 20 | 178 | 3.2 | 12.9 | 0.00 | 0.00 | 0.00 | 43 | 1011.2 |
| 20260504213547 | 21 | 254 | 4.8 | 12.9 | 0.00 | 0.00 | 0.00 | 43 | 1011.3 |
| 20260504213050 | 21 | 207 | 0.0 | 12.9 | 0.00 | 0.00 | 0.00 | 44 | 1011.2 |
| 20260504212549 | 21 | 0 | 0.0 | 11.3 | 0.00 | 0.00 | 0.00 | 43 | 1011.2 |
| 20260504212047 | 21 | 208 | 0.0 | 6.4 | 0.00 | 0.00 | 0.00 | 44 | 1011.3 |
| 20260504211553 | 21 | 0 | 0.0 | 11.3 | 0.00 | 0.00 | 0.00 | 43 | 1011.2 |
| 20260504211049 | 21 | 0 | 3.2 | 11.3 | 0.00 | 0.00 | 0.00 | 44 | 1011.2 |
| 20260504210547 | 21 | 255 | 0.0 | 3.2 | 0.00 | 0.00 | 0.00 | 45 | 1011.2 |
| 20260504205046 | 21 | 261 | 4.8 | 11.3 | 0.00 | 0.00 | 0.00 | 44 | 1011.2 |
| 20260504204601 | 21 | 194 | 4.8 | 9.7 | 0.00 | 0.00 | 0.00 | 43 | 1011.2 |
| 20260504204048 | 21 | 198 | 3.2 | 19.3 | 0.00 | 0.00 | 0.00 | 43 | 1011.3 |
| 20260504203548 | 21 | 241 | 4.8 | 19.3 | 0.00 | 0.00 | 0.00 | 44 | 1011.3 |
| 20260504203050 | 21 | 244 | 6.4 | 16.1 | 0.00 | 0.00 | 0.00 | 44 | 1011.3 |
| 20260504202548 | 21 | 244 | 4.8 | 12.9 | 0.00 | 0.00 | 0.00 | 43 | 1011.4 |
| 20260504202048 | 21 | 197 | 6.4 | 16.1 | 0.00 | 0.00 | 0.00 | 45 | 1011.4 |
| 20260504201550 | 21 | 197 | 6.4 | 16.1 | 0.00 | 0.00 | 0.00 | 46 | 1011.5 |
| 20260504201048 | 21 | 257 | 6.4 | 16.1 | 0.00 | 0.00 | 0.00 | 45 | 1011.5 |
| 20260504200546 | 21 | 255 | 4.8 | 12.9 | 0.00 | 0.00 | 0.00 | 42 | 1011.5 |
| 20260504200051 | 21 | 213 | 4.8 | 19.3 | 0.00 | 0.00 | 0.00 | 41 | 1011.6 |
| 20260504195545 | 21 | 257 | 6.4 | 25.7 | 0.00 | 0.00 | 0.00 | 44 | 1011.6 |
| 20260504195047 | 21 | 209 | 8.0 | 25.7 | 0.00 | 0.00 | 0.00 | 41 | 1011.7 |
| 20260504194605 | 21 | 261 | 6.4 | 19.3 | 0.00 | 0.00 | 0.00 | 41 | 1011.7 |
| 20260504194047 | 21 | 255 | 9.7 | 19.3 | 0.00 | 0.00 | 0.00 | 42 | 1011.8 |
| 20260504193547 | 21 | 201 | 6.4 | 14.5 | 0.00 | 0.00 | 0.00 | 40 | 1011.7 |
| 20260504193052 | 21 | 264 | 3.2 | 17.7 | 0.00 | 0.00 | 0.00 | 45 | 1011.8 |
| 20260504192548 | 21 | 205 | 8.0 | 19.3 | 0.00 | 0.00 | 0.00 | 41 | 1011.9 |
| 20260504192048 | 21 | 197 | 8.0 | 19.3 | 0.00 | 0.00 | 0.00 | 41 | 1012.0 |
| 20260504191552 | 21 | 254 | 6.4 | 17.7 | 0.00 | 0.00 | 0.00 | 43 | 1012.0 |
| 20260504191048 | 21 | 266 | 8.0 | 19.3 | 0.00 | 0.00 | 0.00 | 44 | 1012.2 |
| 20260504190547 | 21 | 244 | 4.8 | 19.3 | 0.00 | 0.00 | 0.00 | 44 | 1012.3 |
| 20260504190117 | 20 | 205 | 8.0 | 20.9 | 0.00 | 0.00 | 0.00 | 42 | 1012.4 |
| 20260504185546 | 20 | 276 | 6.4 | 20.9 | 0.00 | 0.00 | 0.00 | 44 | 1012.2 |
| 20260504185045 | 20 | 239 | 8.0 | 20.9 | 0.00 | 0.00 | 0.00 | 42 | 1012.4 |
| 20260504184557 | 20 | 261 | 4.8 | 12.9 | 0.00 | 0.00 | 0.00 | 42 | 1012.3 |
| 20260504184047 | 20 | 225 | 4.8 | 12.9 | 0.00 | 0.00 | 0.00 | 42 | 1012.4 |
| 20260504183547 | 20 | 156 | 3.2 | 14.5 | 0.00 | 0.00 | 0.00 | 42 | 1012.5 |
| 20260504183054 | 20 | 226 | 4.8 | 14.5 | 0.00 | 0.00 | 0.00 | 46 | 1012.5 |
| 20260504182546 | 20 | 262 | 6.4 | 14.5 | 0.00 | 0.00 | 0.00 | 44 | 1012.6 |
| 20260504182047 | 20 | 234 | 1.6 | 14.5 | 0.00 | 0.00 | 0.00 | 46 | 1012.6 |
| 20260504181603 | 20 | 169 | 3.2 | 11.3 | 0.00 | 0.00 | 0.00 | 44 | 1012.8 |
| 20260504181047 | 20 | 252 | 4.8 | 14.5 | 0.00 | 0.00 | 0.00 | 44 | 1012.8 |
| 20260504180547 | 20 | 261 | 3.2 | 17.7 | 0.00 | 0.00 | 0.00 | 45 | 1012.8 |
| 20260504180208 | 19 | 283 | 3.2 | 17.7 | 0.00 | 0.00 | 0.00 | 45 | 1013.0 |
| 20260504175547 | 19 | 256 | 4.8 | 20.9 | 0.00 | 0.00 | 0.00 | 45 | 1013.1 |
| 20260504175052 | 19 | 240 | 6.4 | 20.9 | 0.00 | 0.00 | 0.00 | 44 | 1013.3 |
| 20260504174555 | 19 | 206 | 4.8 | 17.7 | 0.00 | 0.00 | 0.00 | 45 | 1013.2 |
| 20260504174049 | 19 | 211 | 4.8 | 17.7 | 0.00 | 0.00 | 0.00 | 47 | 1013.2 |
| 20260504173545 | 19 | 246 | 4.8 | 14.5 | 0.00 | 0.00 | 0.00 | 45 | 1013.3 |
| 20260504173059 | 18 | 222 | 6.4 | 14.5 | 0.00 | 0.00 | 0.00 | 45 | 1013.4 |
| 20260504172545 | 18 | 257 | 3.2 | 12.9 | 0.00 | 0.00 | 0.00 | 43 | 1013.5 |
| 20260504172045 | 18 | 296 | 4.8 | 17.7 | 0.00 | 0.00 | 0.00 | 45 | 1013.5 |
| 20260504171558 | 18 | 288 | 4.8 | 17.7 | 0.00 | 0.00 | 0.00 | 46 | 1013.7 |
| 20260504171045 | 18 | 273 | 4.8 | 16.1 | 0.00 | 0.00 | 0.00 | 45 | 1013.9 |
| 20260504170545 | 18 | 237 | 4.8 | 16.1 | 0.00 | 0.00 | 0.00 | 44 | 1013.7 |